Weather History for Savanna, IL

Change the Weather History Date:

Wednesday, October 17, 2012

  Actual Average (KCWI) Record (KCWI)
Temperature  
Mean Temperature 58 °F -  
Max Temperature 67 °F 63 °F 88 °F (1950)
Min Temperature 50 °F 40 °F 24 °F (1992)
Degree Days  
Heating Degree Days 7    
Growing Degree Days 8 (Base 50)    
Moisture  
Dew Point 50 °F    
Average Humidity 78    
Maximum Humidity 96    
Minimum Humidity 57    
Precipitation  
Precipitation 0.38 in - - ()
Sea Level Pressure  
Sea Level Pressure 29.41 in    
Wind  
Wind Speed 9 mph (South)    
Max Wind Speed 17 mph    
Max Gust Speed 24 mph    
Visibility 9 miles    
Events Rain , Thunderstorm    
Averages and records for this station are not official NWS values.
T = Trace of Precipitation, MM = Missing Value Source: NWS Daily Summary

Daily Weather History Graph

Daily Weather History Graph

Search for Another Location

Airport:

Trip Planner

Search our weather history database for the weather conditions in past years. The results will help you decide how hot, cold, wet, or windy it might be!

Date:

Astronomy

Oct. 17, 2012 Rise Set
Actual Time 7:15 AM CDT 6:14 PM CDT
Civil Twilight 6:47 AM CDT 6:43 PM CDT
Nautical Twilight 6:15 AM CDT 7:15 PM CDT
Astronomical Twilight 5:42 AM CDT 7:47 PM CDT
Moon 9:53 AM CDT (10/17) 7:47 PM CDT (10/17)
Length of Visible Light 11h 55m
Length of Day
10h 58m
Waxing Crescent, 7% of the Moon is Illuminated
Oct 17
Waxing Crescent
Oct 21
First Quarter
Oct 29
Full
Nov 6
Last Quarter
Nov 13
New

Hourly Weather History & Observations

Time (CDT) Temp. Dew Point Humidity Pressure Visibility Wind Dir Wind Speed Gust Speed Precip Events Conditions
12:15 AM 57.2 °F 49.6 °F 76% 29.48 in 10.0 mi South 6.9 mph - N/A   Clear
12:35 AM 56.5 °F 49.1 °F 76% 29.48 in 10.0 mi SSE 8.1 mph - N/A   Clear
12:55 AM 56.3 °F 49.1 °F 77% 29.49 in 10.0 mi SSE 8.1 mph - N/A   Clear
1:15 AM 56.3 °F 48.6 °F 75% 29.49 in 10.0 mi SSE 6.9 mph - N/A   Clear
1:35 AM 55.8 °F 48.4 °F 76% 29.49 in 10.0 mi South 6.9 mph - N/A   Clear
1:55 AM 54.3 °F 48.2 °F 80% 29.49 in 10.0 mi South 8.1 mph - N/A   Clear
2:15 AM 55.2 °F 48.0 °F 77% 29.48 in 10.0 mi South 6.9 mph - N/A   Clear
2:35 AM 54.5 °F 47.7 °F 78% 29.48 in 10.0 mi SSE 8.1 mph - N/A   Clear
2:55 AM 55.4 °F 47.7 °F 75% 29.48 in 10.0 mi SSE 8.1 mph - N/A   Clear
3:15 AM 54.0 °F 47.3 °F 78% 29.47 in 10.0 mi SSE 8.1 mph - N/A   Clear
3:35 AM 53.1 °F 46.8 °F 79% 29.47 in 10.0 mi SE 8.1 mph - N/A   Clear
3:55 AM 53.1 °F 46.8 °F 79% 29.46 in 10.0 mi SSE 9.2 mph - N/A   Clear
4:15 AM 52.7 °F 46.6 °F 80% 29.47 in 10.0 mi SE 8.1 mph - N/A   Clear
4:35 AM 52.7 °F 46.9 °F 81% 29.47 in 10.0 mi SE 10.4 mph - N/A   Clear
4:55 AM 52.5 °F 46.8 °F 81% 29.47 in 10.0 mi SE 10.4 mph - N/A   Clear
5:15 AM 52.9 °F 46.8 °F 80% 29.46 in 10.0 mi SSE 9.2 mph - N/A   Clear
5:35 AM 53.8 °F 46.9 °F 78% 29.46 in 10.0 mi SSE 10.4 mph - N/A   Clear
5:55 AM 54.3 °F 47.1 °F 77% 29.45 in 10.0 mi SSE 10.4 mph - N/A   Clear
6:15 AM 54.7 °F 47.1 °F 76% 29.45 in 10.0 mi SSE 8.1 mph - N/A   Clear
6:55 AM 54.9 °F 47.1 °F 75% 29.45 in 10.0 mi South 9.2 mph - N/A   Clear
7:15 AM 55.9 °F 47.3 °F 73% 29.45 in 10.0 mi SSE 11.5 mph - N/A   Clear
7:35 AM 56.7 °F 47.3 °F 71% 29.45 in 10.0 mi South 12.7 mph - N/A   Clear
7:55 AM 56.7 °F 47.3 °F 71% 29.45 in 10.0 mi South 12.7 mph - N/A   Clear
8:15 AM 57.2 °F 47.7 °F 70% 29.45 in 10.0 mi SSE 11.5 mph - N/A   Scattered Clouds
8:35 AM 58.8 °F 48.2 °F 68% 29.44 in 10.0 mi SSE 9.2 mph - N/A   Scattered Clouds
8:55 AM 60.3 °F 48.9 °F 66% 29.44 in 10.0 mi South 12.7 mph - N/A   Scattered Clouds
9:15 AM 60.8 °F 49.1 °F 65% 29.45 in 10.0 mi South 11.5 mph - N/A   Scattered Clouds
9:35 AM 61.7 °F 49.3 °F 64% 29.44 in 10.0 mi South 12.7 mph - N/A   Scattered Clouds
9:55 AM 61.2 °F 49.5 °F 65% 29.43 in 10.0 mi South 12.7 mph - N/A   Clear
10:15 AM 64.6 °F 50.2 °F 60% 29.42 in 10.0 mi South 12.7 mph - N/A   Clear
10:35 AM 64.0 °F 49.8 °F 60% 29.43 in 10.0 mi South 16.1 mph - N/A   Scattered Clouds
10:55 AM 64.2 °F 50.0 °F 60% 29.42 in 10.0 mi South 17.3 mph 23.0 mph N/A   Scattered Clouds
11:15 AM 66.6 °F 50.9 °F 57% 29.43 in 10.0 mi South 12.7 mph 20.7 mph N/A   Mostly Cloudy
11:55 AM 65.1 °F 51.3 °F 61% 29.43 in 10.0 mi SSW 11.5 mph - N/A Thunderstorm Clear
12:15 PM 64.2 °F 52.0 °F 64% 29.43 in 10.0 mi SSW 12.7 mph 17.3 mph N/A Rain Light Rain
12:35 PM 62.6 °F 52.5 °F 70% 29.43 in 10.0 mi SSW 9.2 mph - N/A Rain Light Rain
12:55 PM 61.7 °F 53.8 °F 75% 29.42 in 7.0 mi South 8.1 mph - 0.02 in Rain Heavy Rain
1:15 PM 60.4 °F 55.6 °F 84% 29.41 in 10.0 mi SSE 5.8 mph - N/A Rain Light Rain
1:35 PM 61.7 °F 55.6 °F 80% 29.41 in 10.0 mi South 11.5 mph - N/A   Overcast
1:55 PM 61.7 °F 54.7 °F 78% 29.41 in 10.0 mi South 8.1 mph - N/A   Overcast
2:15 PM 61.2 °F 54.5 °F 79% 29.40 in 10.0 mi SSW 6.9 mph - N/A Rain Rain
2:35 PM 60.8 °F 54.5 °F 80% 29.39 in 10.0 mi South 4.6 mph - N/A Rain Light Rain
2:55 PM 60.8 °F 55.8 °F 83% 29.37 in 10.0 mi SSE 4.6 mph - 0.01 in   Overcast
3:15 PM 61.7 °F 55.6 °F 80% 29.36 in 10.0 mi South 4.6 mph - N/A   Overcast
3:35 PM 61.2 °F 56.7 °F 85% 29.36 in 10.0 mi SE 8.1 mph - N/A   Overcast
3:55 PM 60.4 °F 56.5 °F 87% 29.36 in 10.0 mi South 6.9 mph - N/A Rain Light Rain
4:15 PM 59.9 °F 56.8 °F 90% 29.38 in 5.0 mi South 9.2 mph - 0.01 in Rain Rain
4:35 PM 59.4 °F 56.7 °F 91% 29.34 in 7.0 mi SSE 5.8 mph - 0.03 in Rain Light Rain
4:55 PM 59.2 °F 57.2 °F 93% 29.35 in 10.0 mi South 4.6 mph - 0.03 in   Overcast
5:15 PM 58.8 °F 57.0 °F 94% 29.35 in 7.0 mi SSE 5.8 mph - N/A   Light Drizzle
5:35 PM 58.5 °F 56.8 °F 94% 29.34 in 5.0 mi SSE 3.5 mph - 0.01 in Rain Rain
5:55 PM 58.3 °F 56.8 °F 95% 29.33 in 3.0 mi SSW 3.5 mph - 0.03 in Rain Rain
6:15 PM 58.3 °F 56.8 °F 95% 29.34 in 3.0 mi SSW 4.6 mph - 0.03 in Rain Rain
6:35 PM 58.1 °F 56.8 °F 96% 29.34 in 3.0 mi SW 6.9 mph - 0.11 in Rain Rain
6:55 PM 55.8 °F 53.4 °F 92% 29.36 in 5.0 mi West 15.0 mph 24.2 mph 0.19 in Rain Rain
7:15 PM 55.4 °F 52.3 °F 89% 29.38 in 10.0 mi WNW 10.4 mph 20.7 mph 0.02 in Rain Rain
7:35 PM 55.0 °F 52.5 °F 91% 29.38 in 10.0 mi West 10.4 mph - 0.04 in Rain Light Rain
7:55 PM 54.9 °F 52.2 °F 91% 29.37 in 7.0 mi West 9.2 mph - 0.08 in Rain Rain
8:15 PM 54.7 °F 51.3 °F 88% 29.37 in 10.0 mi WNW 8.1 mph - 0.01 in Rain Light Rain
8:35 PM 54.5 °F 50.9 °F 88% 29.35 in 10.0 mi WNW 8.1 mph - 0.01 in Rain Light Rain
8:55 PM 54.1 °F 50.5 °F 88% 29.34 in 10.0 mi West 6.9 mph - 0.02 in Rain Light Rain
9:15 PM 54.1 °F 50.2 °F 86% 29.35 in 10.0 mi West 9.2 mph - N/A   Mostly Cloudy
9:35 PM 54.1 °F 49.1 °F 83% 29.35 in 10.0 mi West 9.2 mph 16.1 mph N/A   Overcast
9:55 PM 54.1 °F 47.3 °F 78% 29.34 in 10.0 mi West 11.5 mph 17.3 mph N/A   Overcast
10:15 PM 53.8 °F 46.0 °F 75% 29.35 in 10.0 mi West 11.5 mph 17.3 mph N/A   Overcast
10:35 PM 53.1 °F 45.0 °F 74% 29.37 in 10.0 mi WSW 13.8 mph 19.6 mph N/A   Mostly Cloudy
10:55 PM 52.3 °F 44.6 °F 75% 29.38 in 10.0 mi WSW 11.5 mph 17.3 mph N/A   Scattered Clouds
11:15 PM 51.4 °F 44.4 °F 77% 29.37 in 10.0 mi WSW 12.7 mph 17.3 mph N/A   Clear
11:35 PM 50.9 °F 44.1 °F 77% 29.36 in 10.0 mi WSW 11.5 mph 19.6 mph N/A   Clear
11:55 PM 50.2 °F 43.3 °F 77% 29.35 in 10.0 mi WSW 13.8 mph 18.4 mph N/A   Clear